Tracking 17147 objects as of 4-July-2015
HD Live streaming from Space Station

SYRACUSE 3B

Track SYRACUSE 3B now!
SYRACUSE 3B is classified as:


NORAD ID: 29273
Int'l Code: 2006-033B
Perigee: 35,781.2 km
Apogee: 35,809.7 km
Inclination: 0.0 °
Period: 1,436.2 minutes
Semi major axis: 42166 km
RCS: 25.7711 m2 (large)
Launch date: August 11, 2006
Source: France (FR)

Syracuse 3B is a French military geostationary satellite. It carries four spot beams in SHF frequencies and two spot beams in EHF frequencies.
Your satellite tracking list
Your tracking list is empty





NASA's NSSDC Master Catalog

Two Line Element Set (TLE):
1 29273U 06033B   15183.58573213 -.00000048  00000-0  00000+0 0  9999
2 29273 000.0372 085.9657 0003375 012.1259 027.8592 01.00265635 32618

Source of the keplerian elements: AFSPC

N2YO: 254